Location: Corsier
(46.2637°N, 6.2238°E)
Time: 06:24:16
(UTC+00:00)

CZ-2D R/B - Pass Details

Date: 07 June 2020
Orbit: 554 x 638 km, 97.9° (Epoch: 04 July)

Event Time Altitude Azimuth Distance (km) Brightness Sun altitude
Rises 02:58:10 0° 10° (N) 2,855 8.0 -6.9°
Reaches altitude 10° 03:00:20 10° 8° (N) 1,961 7.0 -6.7°
Maximum altitude 03:04:34 69° 287° (WNW) 662 3.6 -6.1°
Drops below altitude 10° 03:08:53 10° 204° (SSW) 1,992 5.6 -5.6°
Enters shadow 03:10:14 - 202° (SSW) 2,548 6.2 -5.4°
